Sugar Land, TX

6:18 PM CST on February 24, 2017 (GMT -0600)
Sugar Land Municipal-Hull

Weather History for KSGR - October, 2013

Change the Weather History Date:

Friday, October 18, 2013

  Actual Average Record
Temperature  
Mean Temperature 65 °F -  
Max Temperature 73 °F 81 °F 92 °F (1947)
Min Temperature 57 °F 59 °F 44 °F (1948)
Growing Degree Days 15 (Base 50)    
Moisture  
Dew Point 59 °F    
Average Humidity 79    
Maximum Humidity 90    
Minimum Humidity 66    
Precipitation  
Precipitation 0.03 in - - ()
Sea Level Pressure  
Sea Level Pressure 29.95 in    
Wind  
Wind Speed 5 mph (ENE)    
Max Wind Speed 14 mph    
Max Gust Speed 20 mph    
Visibility 10 miles    
Events Rain    
Averages and records for this station are not official NWS values.
T = Trace of Precipitation, MM = Missing Value Source: NWS Daily Summary

Daily Weather History Graph

Daily Weather History Graph

Search for Another Location

Airport or City:

Trip Planner

Search our weather history database for the weather conditions in past years. The results will help you decide how hot, cold, wet, or windy it might be!

Date:

Astronomy

Oct. 18, 2013 Rise Set
Actual Time 7:26 AM CDT 6:48 PM CDT
Civil Twilight 7:02 AM CDT 7:12 PM CDT
Nautical Twilight 6:34 AM CDT 7:40 PM CDT
Astronomical Twilight 6:06 AM CDT 8:08 PM CDT
Moon 6:41 PM CDT (10/18) 7:02 AM CDT (10/18)
Length of Visible Light 12h 10m
Length of Day
11h 22m
Full, 100% of the Moon is Illuminated
Oct 18
Full
Oct 18
Full
Oct 26
Last Quarter
Nov 3
New
Nov 9
First Quarter

Hourly Weather History & Observations

Time (CDT) Temp. Dew Point Humidity Pressure Visibility Wind Dir Wind Speed Gust Speed Precip Events Conditions
12:53 AM 60.1 °F 55.0 °F 83% 30.00 in 10.0 mi Calm Calm - N/A   Clear
1:53 AM 57.9 °F 55.0 °F 90% 30.00 in 10.0 mi Calm Calm - N/A   Clear
2:53 AM 61.0 °F 55.0 °F 81% 30.00 in 10.0 mi Calm Calm - N/A   Clear
3:53 AM 59.0 °F 54.0 °F 83% 29.99 in 10.0 mi NNE 3.5 mph - N/A   Clear
4:53 AM 60.1 °F 54.0 °F 80% 29.98 in 10.0 mi ENE 3.5 mph - N/A   Partly Cloudy
5:53 AM 62.1 °F 55.9 °F 80% 29.96 in 10.0 mi NE 6.9 mph - N/A   Mostly Cloudy
6:53 AM 64.9 °F 55.0 °F 70% 29.98 in 10.0 mi East 4.6 mph - N/A   Overcast
7:53 AM 66.0 °F 57.9 °F 75% 29.99 in 10.0 mi East 6.9 mph - N/A   Overcast
8:53 AM 66.0 °F 59.0 °F 78% 29.99 in 10.0 mi ENE 9.2 mph - 0.00 in   Mostly Cloudy
9:53 AM 68.0 °F 61.0 °F 78% 30.00 in 10.0 mi East 6.9 mph - N/A   Mostly Cloudy
10:53 AM 69.1 °F 62.1 °F 78% 30.00 in 10.0 mi East 8.1 mph - N/A   Overcast
11:53 AM 71.1 °F 62.1 °F 73% 29.99 in 10.0 mi East 9.2 mph 19.6 mph 0.00 in   Overcast
12:53 PM 73.0 °F 62.1 °F 68% 29.96 in 10.0 mi East 13.8 mph - N/A   Mostly Cloudy
1:53 PM 73.0 °F 61.0 °F 66% 29.93 in 10.0 mi East 10.4 mph - N/A   Overcast
2:53 PM 71.1 °F 59.0 °F 66% 29.91 in 10.0 mi East 8.1 mph - 0.01 in Rain Light Rain
3:53 PM 72.0 °F 62.1 °F 71% 29.91 in 10.0 mi Variable 6.9 mph - 0.00 in   Overcast
4:53 PM 72.0 °F 60.1 °F 66% 29.89 in 10.0 mi East 5.8 mph - 0.00 in Rain Light Rain
5:53 PM 70.0 °F 62.1 °F 76% 29.90 in 10.0 mi ENE 10.4 mph - 0.00 in   Overcast
6:53 PM 70.0 °F 60.1 °F 71% 29.91 in 10.0 mi ENE 9.2 mph - N/A   Overcast
7:53 PM 66.0 °F 61.0 °F 84% 29.91 in 10.0 mi NNE 9.2 mph - N/A   Overcast
8:53 PM 66.0 °F 61.0 °F 84% 29.92 in 10.0 mi NNE 8.1 mph - N/A   Overcast
9:00 PM 66.2 °F 60.8 °F 83% 29.91 in 10.0 mi NE 9.2 mph - 0.00 in Rain Light Rain
9:15 PM 66.2 °F 60.8 °F 83% 29.91 in 8.0 mi NE 8.1 mph - 0.01 in Rain Light Rain
9:22 PM 66.2 °F 60.8 °F 83% 29.90 in 7.0 mi NE 6.9 mph - 0.01 in Rain Light Rain
9:38 PM 64.4 °F 60.8 °F 88% 29.92 in 10.0 mi NNE 8.1 mph - 0.01 in   Overcast
9:53 PM 64.0 °F 61.0 °F 90% 29.95 in 10.0 mi North 12.7 mph - 0.01 in   Overcast
10:36 PM 64.4 °F 60.8 °F 88% 29.94 in 10.0 mi NNE 12.7 mph - N/A   Overcast
10:53 PM 64.0 °F 61.0 °F 90% 29.96 in 10.0 mi NNE 12.7 mph - N/A   Overcast
11:53 PM 64.9 °F 62.1 °F 90% 29.96 in 7.0 mi NNE 5.8 mph - 0.01 in Rain Light Rain